Wetbulb
62.03 62.85 62.77 63.10 63.84 64.45 63.91 63.61 63.64 63.87 64.03 63.85 63.67 63.42 63.44 63.30 63.07 62.82 61.17 59.12 60.45 64.63 66.01 66.48 66.64 66.69 66.91 67.22 67.14 66.52 66.41 66.80 66.29 66.19 65.86 65.75 64.84 64.24 64.07 63.87 63.89 63.85 63.75
63.57 63.83 63.72 64.10 64.31 64.82 64.82 63.88 63.69 63.24 63.07 63.13 63.04 63.36 62.89 62.83 63.39 64.05 63.59 63.09 61.11 62.54 65.28 66.25 66.62 66.82 66.79 66.59 66.80 66.56 66.00 65.81 66.42 65.98 65.19 65.32 64.28 63.56 63.51 62.97 63.30 63.53 63.32
64.67 64.57 64.47 64.51 64.68 64.33 64.16 63.67 63.64 63.72 62.70 63.09 61.35 61.64 61.12 62.71 62.16 62.93 63.17 61.56 60.80 60.08 61.21 64.69 65.85 66.15 66.03 65.76 65.78 66.03 65.86 65.57 65.75 65.64 65.01 64.87 63.73 63.24 63.04 62.79 63.17 62.93 62.49
65.43 64.80 64.77 64.85 64.47 63.49 63.20 62.87 61.55 60.66 59.03 58.33 58.80 58.18 58.21 59.04 59.11 58.96 58.99 59.28 59.13 59.51 60.15 62.16 63.76 64.63 64.28 64.41 64.50 64.85 65.05 65.23 65.30 65.55 64.79 64.52 63.67 63.18 62.85 62.54 62.78 62.42 61.93
59.65 59.71 61.53 60.14 58.85 58.83 58.58 58.11 57.06 56.45 55.57 55.97 56.47 55.74 56.05 56.34 56.67 58.40 57.56 57.97 58.63 59.32 58.70 59.91 59.48 59.45 60.75 62.66 63.21 63.44 63.66 63.76 64.29 64.58 64.26 64.01 63.63 63.13 62.89 62.64 62.11 62.14 61.72
56.32 55.97 55.89 55.74 56.02 55.73 55.42 55.19 54.67 55.19 54.64 54.47 55.59 55.15 53.95 54.27 55.10 54.91 55.32 56.13 56.81 57.25 57.55 58.40 58.23 58.13 58.79 61.48 61.81 62.36 62.87 63.08 63.06 63.87 63.46 62.95 63.28 62.96 62.43 61.93 62.06 61.69 61.02
53.05 52.81 53.86 53.70 53.90 54.14 53.54 53.55 53.02 52.67 52.34 53.02 51.70 51.41 51.36 53.00 52.63 52.39 52.77 53.33 54.46 55.62 56.38 56.61 56.52 56.79 57.10 60.00 60.81 61.10 62.06 62.46 62.78 62.86 62.42 62.43 62.38 62.40 61.99 61.72 61.36 61.29 60.61
50.64 51.29 50.74 49.93 50.23 50.53 49.92 49.11 49.42 49.60 51.09 51.40 48.89 48.58 46.05 49.80 51.16 51.08 51.43 51.25 52.30 53.73 53.90 54.91 55.27 56.04 56.03 56.13 56.22 59.73 60.37 61.10 61.20 61.71 62.02 61.76 61.90 61.90 61.76 61.38 61.25 60.97 60.30
46.25 46.47 46.45 47.14 47.70 47.75 46.74 47.14 46.88 46.84 46.58 48.99 49.77 49.50 44.79 43.16 46.35 48.45 48.73 50.12 48.86 51.56 51.21 51.70 54.12 54.05 54.79 54.74 55.65 56.26 57.60 58.76 59.32 59.53 60.21 60.59 61.00 60.90 61.50 61.40 60.89 60.38 59.92
42.62 43.29 43.79 43.51 43.66 43.84 43.08 43.75 44.40 44.28 44.31 43.58 45.86 46.34 45.81 45.55 42.74 41.24 46.33 44.78 46.07 45.28 47.19 47.42 49.14 50.84 52.74 52.73 52.52 51.66 52.97 55.51 56.32 57.09 57.31 57.56 58.39 59.97 60.71 60.86 61.12 60.29 59.74
40.60 40.95 41.55 41.32 41.02 41.28 41.00 42.09 41.65 41.09 40.99 41.28 40.89 40.92 42.64 41.71 43.18 38.27 36.22 38.54 41.02 42.49 44.32 44.50 43.60 45.49 47.60 51.50 52.07 51.30 52.11 53.56 53.96 53.87 54.12 54.26 55.10 56.61 58.28 59.81 60.50 60.63 59.90
38.55 38.46 39.58 39.45 39.45 39.12 39.26 40.26 39.91 38.69 38.58 39.28 39.23 39.38 38.51 37.97 37.31 37.00 35.15 34.53 35.16 37.76 39.62 41.38 43.04 44.94 46.54 48.41 47.88 45.79 47.68 49.87 50.87 51.05 51.79 51.91 52.01 53.20 54.96 56.61 58.52 59.92 60.25
36.84 36.60 37.52 37.17 36.91 36.95 37.37 38.54 37.70 36.53 37.08 36.57 36.62 36.23 37.23 37.11 37.67 36.25 34.69 33.88 33.12 35.19 36.79 38.59 40.80 41.11 41.80 41.48 42.51 40.67 42.00 44.50 46.73 48.41 49.18 49.62 49.41 50.16 51.48 53.10 54.87 56.70 58.68
35.24 35.69 35.79 35.79 35.66 35.80 36.04 36.73 36.48 35.52 35.91 35.07 34.62 34.98 35.09 35.78 35.63 35.67 34.10 32.98 30.26 31.43 33.17 33.40 37.89 38.25 38.82 39.47 39.25 38.47 38.14 41.86 43.80 43.34 44.62 47.56 47.45 47.58 48.18 49.60 51.74 53.33 55.34
34.62 34.17 34.42 34.08 34.19 34.51 34.93 34.80 34.59 33.55 34.04 33.61 33.59 33.41 33.21 33.55 34.23 34.24 34.36 33.73 30.94 26.80 26.44 30.80 30.85 35.19 35.40 35.10 35.11 35.95 35.05 36.99 39.80 40.32 41.31 42.58 44.37 45.44 46.11 46.69 47.38 49.29 51.67
32.82 32.72 32.83 32.84 32.62 33.31 33.45 33.22 32.99 32.55 31.95 32.23 32.06 31.66 31.83 31.77 31.77 32.08 31.54 31.20 30.88 28.11 24.61 28.70 29.02 30.78 31.59 32.52 33.38 32.86 33.24 35.33 37.04 38.76 39.65 41.28 42.78 42.93 42.41 43.63 44.15 45.83 47.33
31.52 31.21 31.30 31.30 31.44 31.81 31.95 31.42 31.06 30.90 30.22 30.13 30.24 30.07 29.95 30.25 29.46 29.55 29.01 29.10 28.30 27.90 23.98 26.36 28.90 29.06 28.26 28.81 29.97 30.92 31.90 32.03 33.29 36.34 37.43 38.22 39.91 42.15 42.47 42.58 41.94 42.68 43.63
30.40 30.03 30.32 30.13 30.31 30.63 30.45 29.76 29.16 29.36 28.93 28.21 28.41 28.58 28.17 29.43 27.88 27.22 26.88 26.01 25.10 26.33 24.86 21.59 24.40 25.21 25.44 27.08 27.46 27.15 29.10 30.86 30.35 33.37 35.29 36.59 38.59 40.14 40.92 41.54 41.79 41.81 41.95
28.66 28.90 28.98 28.54 28.60 29.30 28.77 28.75 28.43 27.92 28.20 27.88 27.79 27.50 26.85 26.70 24.90 24.82 24.83 23.38 24.08 25.60 24.12 22.47 21.35 23.86 24.16 25.08 24.46 25.33 25.68 26.02 28.81 31.43 32.86 33.61 34.64 35.53 37.38 38.90 40.08 40.24 40.27
27.25 27.30 27.60 27.64 27.55 27.89 27.71 27.50 27.35 26.28 26.79 26.95 27.81 26.42 25.79 25.26 24.72 23.73 23.26 22.72 23.73 21.82 21.81 21.07 20.70 20.74 21.36 22.49 22.70 21.05 20.91 23.54 23.62 26.98 28.76 30.34 32.29 33.66 34.64 36.46 38.34 37.99 38.76
26.13 26.40 25.81 25.98 26.23 26.75 27.41 26.24 25.94 24.69 24.90 24.48 24.99 25.28 25.58 26.08 26.42 25.26 24.12 22.37 21.82 20.98 20.30 18.97 18.31 18.42 18.66 18.97 18.46 20.02 19.34 20.24 21.33 23.58 24.32 25.74 27.16 28.09 29.52 32.12 33.01 35.34 37.54
24.19 24.44 24.24 24.32 24.06 26.37 28.11 28.01 26.58 23.57 23.97 23.68 22.77 23.02 23.49 24.23 23.88 25.42 25.23 25.85 24.47 20.03 18.62 17.84 17.41 16.60 16.93 17.98 19.05 18.52 18.21 17.05 15.14 22.48 21.57 21.52 24.92 24.86 26.97 28.21 32.27 33.82 36.42
22.99 22.60 22.57 22.76 22.22 23.07 27.46 27.11 26.61 23.22 22.81 22.51 22.10 21.79 21.88 23.21 23.00 21.56 23.62 24.09 22.78 23.62 23.12 19.31 16.40 16.91 17.00 18.57 18.83 17.61 17.43 17.42 17.13 20.89 22.25 20.51 24.71 24.28 27.19 28.95 33.29 34.12 35.62
21.27 21.37 21.10 21.29 21.39 23.31 26.23 26.09 25.83 22.11 21.87 21.94 21.43 21.09 20.91 21.19 21.08 22.15 21.34 19.55 19.52 19.58 19.49 20.07 19.20 19.04 19.09 19.43 19.25 19.16 18.10 18.07 19.72 20.82 23.48 19.17 23.55 23.25 25.37 27.18 31.29 33.65 35.62
20.33 19.96 21.63 20.52 20.53 21.17 24.87 25.07 24.20 21.42 21.44 20.95 21.76 21.12 21.24 20.55 22.56 24.50 20.20 18.02 17.63 16.95 20.85 22.55 21.85 21.23 21.26 21.50 20.56 17.96 13.69 14.03 14.06 15.48 19.40 19.59 19.40 18.93 21.52 22.78 26.24 31.91 33.47
21.63 21.75 21.91 20.88 21.75 20.33 23.10 24.24 23.71 21.63 19.82 20.39 20.50 20.79 22.66 21.23 23.60 23.98 19.31 17.14 12.89 15.01 16.82 14.47 12.79 14.32 15.99 16.00 18.65 16.25 14.86 11.78 11.74 11.99 18.09 17.20 17.46 17.99 15.62 19.97 22.63 26.28 29.29
MSLP
1022.85 1022.81 1022.76 1022.64 1022.47 1022.36 1022.41 1022.26 1022.07 1021.78 1021.79 1021.70 1021.57 1021.51 1021.25 1021.00 1020.86 1020.67 1020.53 1020.31 1020.19 1020.04 1019.92 1019.78 1019.58 1019.42 1019.23 1018.96 1018.66 1018.70 1018.45 1018.24 1018.18 1017.89 1017.72 1017.71 1017.63 1017.61 1017.58 1017.47 1017.44 1017.65 1017.47
1022.61 1022.55 1022.54 1022.55 1022.53 1022.50 1022.35 1022.51 1022.35 1022.23 1022.04 1021.81 1021.63 1021.36 1021.15 1020.91 1020.67 1020.35 1020.04 1019.94 1019.75 1019.68 1019.56 1019.44 1019.33 1019.29 1019.30 1019.21 1018.78 1018.40 1018.30 1017.98 1017.67 1017.68 1017.57 1017.28 1017.27 1017.25 1017.22 1017.37 1017.48 1017.27 1017.18
1022.55 1022.60 1022.69 1022.77 1022.68 1022.77 1022.67 1022.65 1022.54 1022.28 1022.22 1021.90 1021.80 1021.26 1020.88 1020.56 1020.27 1020.08 1019.81 1019.68 1019.54 1019.40 1019.25 1019.11 1019.04 1018.99 1018.92 1018.91 1018.75 1018.46 1018.13 1017.91 1017.54 1017.36 1017.31 1017.07 1017.11 1017.15 1017.23 1017.11 1017.08 1017.34 1017.39
1022.98 1022.90 1022.84 1022.94 1022.85 1022.86 1022.76 1022.66 1022.63 1022.83 1022.62 1022.37 1022.02 1021.70 1021.21 1020.80 1020.45 1020.22 1019.91 1019.66 1019.45 1019.30 1019.24 1019.15 1019.17 1019.12 1019.16 1019.06 1018.77 1018.42 1017.99 1017.62 1017.23 1016.91 1016.88 1016.77 1016.81 1016.93 1017.05 1017.10 1017.00 1017.07 1017.32
1023.43 1023.53 1023.31 1023.25 1023.20 1023.25 1023.27 1023.23 1023.29 1023.25 1022.95 1022.68 1022.36 1021.87 1021.42 1020.99 1020.55 1020.00 1019.84 1019.62 1019.54 1019.39 1019.26 1019.13 1019.12 1019.11 1019.20 1018.95 1018.70 1018.44 1018.19 1017.83 1017.30 1017.07 1016.60 1016.45 1016.60 1016.49 1016.58 1016.70 1016.89 1016.98 1017.18
1024.25 1024.11 1024.07 1023.96 1023.66 1023.59 1023.77 1023.74 1023.86 1023.65 1023.26 1022.95 1022.70 1022.15 1021.49 1020.85 1020.25 1020.20 1020.25 1019.85 1019.61 1019.47 1019.33 1019.24 1019.10 1018.95 1018.75 1018.55 1018.41 1018.13 1017.81 1017.50 1016.98 1016.69 1016.71 1016.49 1016.37 1016.39 1016.35 1016.28 1016.41 1016.61 1016.97
1024.62 1024.70 1024.79 1024.71 1024.31 1024.26 1024.41 1024.23 1024.37 1024.20 1023.89 1023.49 1022.90 1022.35 1021.66 1020.82 1020.69 1020.63 1020.46 1020.31 1020.20 1019.90 1019.68 1019.47 1019.19 1018.99 1018.79 1018.58 1018.40 1018.25 1017.69 1017.27 1016.94 1016.54 1016.36 1016.38 1016.32 1016.12 1016.05 1016.04 1016.09 1016.21 1016.55
1025.43 1025.24 1025.27 1025.46 1025.28 1025.02 1024.67 1024.86 1024.96 1024.96 1024.62 1024.44 1024.40 1023.57 1022.56 1021.49 1020.75 1020.90 1020.93 1020.88 1020.68 1020.44 1020.12 1019.82 1019.66 1019.26 1018.98 1018.64 1018.42 1018.16 1017.71 1017.52 1016.97 1016.66 1016.48 1016.38 1016.17 1015.94 1015.78 1015.51 1015.49 1015.75 1016.01
1026.28 1026.09 1026.12 1025.74 1026.45 1025.79 1025.76 1025.75 1025.63 1025.46 1025.48 1024.87 1024.79 1024.81 1024.39 1024.04 1023.22 1021.69 1021.61 1021.31 1021.19 1021.21 1021.11 1020.54 1020.00 1019.61 1019.16 1018.79 1018.52 1018.34 1017.95 1017.55 1017.36 1016.95 1016.72 1016.21 1016.01 1015.42 1015.31 1014.99 1014.69 1014.71 1015.15
1027.46 1026.75 1027.26 1026.51 1026.97 1026.77 1026.82 1026.64 1026.67 1026.42 1026.25 1025.79 1025.39 1025.54 1025.51 1025.41 1024.66 1023.37 1022.24 1022.03 1021.98 1021.69 1021.42 1021.07 1020.46 1019.84 1019.41 1019.05 1018.68 1018.54 1018.27 1017.78 1017.35 1017.05 1016.95 1016.60 1016.27 1015.51 1015.16 1014.67 1014.38 1013.76 1014.14
1028.31 1027.87 1027.97 1027.33 1027.58 1027.44 1027.45 1027.67 1027.33 1027.55 1027.26 1026.72 1027.10 1027.00 1026.28 1025.62 1025.36 1025.39 1023.47 1023.25 1023.20 1022.70 1022.07 1021.34 1021.09 1020.26 1019.64 1019.33 1018.83 1018.51 1018.42 1018.15 1017.69 1017.41 1017.07 1016.71 1016.54 1015.94 1015.25 1014.65 1013.95 1013.57 1013.31
1029.49 1028.93 1028.74 1028.32 1028.40 1028.50 1028.25 1028.29 1028.18 1027.99 1028.23 1028.13 1027.92 1027.65 1027.57 1027.18 1026.92 1026.64 1025.53 1024.45 1023.70 1022.98 1022.77 1022.06 1021.23 1020.63 1020.30 1020.04 1019.69 1019.48 1018.97 1018.43 1017.90 1017.50 1017.15 1016.65 1016.28 1015.95 1015.30 1014.63 1013.90 1013.28 1012.89
1030.51 1029.89 1029.39 1028.80 1028.74 1028.98 1029.03 1028.74 1028.65 1028.77 1029.07 1028.94 1028.52 1028.70 1028.42 1028.01 1027.85 1027.55 1027.04 1025.82 1024.50 1023.49 1022.53 1022.00 1021.66 1021.66 1021.22 1020.82 1020.51 1020.23 1019.55 1019.13 1018.28 1017.44 1017.02 1016.32 1015.98 1015.48 1015.10 1014.53 1013.75 1013.26 1012.35
1030.65 1030.06 1029.99 1029.54 1029.56 1029.64 1029.63 1029.57 1029.69 1029.72 1029.71 1029.43 1029.34 1029.38 1029.16 1028.45 1028.26 1027.98 1027.90 1027.15 1024.73 1024.03 1023.18 1022.59 1022.01 1021.90 1022.03 1021.75 1021.32 1020.95 1020.18 1019.58 1018.86 1018.30 1017.20 1016.44 1015.63 1015.20 1014.79 1014.18 1013.59 1012.99 1012.09
1030.66 1030.69 1030.42 1030.43 1030.52 1030.37 1030.48 1030.47 1030.73 1030.66 1030.19 1030.02 1030.22 1030.14 1029.58 1029.51 1028.98 1028.53 1028.33 1027.95 1027.90 1025.63 1023.69 1023.34 1023.49 1023.30 1022.96 1022.42 1021.97 1021.23 1020.73 1019.99 1019.06 1018.09 1017.40 1016.53 1015.66 1014.81 1014.28 1013.95 1013.43 1012.69 1011.79
1031.22 1031.06 1030.88 1030.95 1030.98 1030.79 1030.83 1030.85 1030.94 1030.77 1030.68 1030.30 1030.25 1030.15 1029.76 1029.71 1029.49 1029.03 1028.75 1028.68 1028.46 1028.17 1026.02 1024.61 1024.30 1023.98 1023.78 1022.86 1021.97 1021.47 1020.60 1019.71 1019.23 1018.14 1017.17 1016.22 1015.29 1014.47 1013.87 1013.51 1013.04 1012.26 1011.42
1031.67 1031.52 1031.54 1031.55 1031.51 1031.43 1031.54 1031.52 1031.50 1031.19 1030.95 1030.78 1030.51 1030.25 1030.06 1029.66 1029.86 1029.41 1029.20 1028.90 1028.72 1028.57 1027.24 1024.95 1025.01 1024.30 1023.50 1022.59 1021.83 1021.13 1020.25 1019.36 1018.49 1017.76 1016.92 1015.99 1015.07 1014.12 1013.37 1012.84 1012.20 1011.61 1010.96
1032.06 1032.12 1031.91 1031.83 1031.94 1031.92 1031.75 1031.61 1031.62 1031.79 1031.43 1031.29 1030.88 1030.70 1030.60 1030.06 1030.08 1030.12 1029.81 1029.44 1029.20 1028.70 1028.03 1025.82 1025.56 1024.46 1023.83 1022.94 1021.93 1020.80 1019.89 1019.09 1018.07 1017.15 1016.35 1015.46 1014.33 1013.52 1012.87 1012.04 1011.38 1010.82 1010.28
1032.23 1032.30 1032.36 1032.28 1032.16 1032.25 1032.32 1032.22 1032.10 1032.00 1032.04 1031.89 1031.52 1031.00 1030.70 1030.31 1030.41 1030.08 1029.81 1030.04 1029.49 1028.64 1028.20 1027.15 1025.01 1024.69 1023.70 1022.78 1021.38 1020.49 1019.62 1018.64 1017.79 1016.94 1016.10 1015.13 1014.25 1013.26 1012.31 1011.57 1010.69 1009.91 1009.25
1032.72 1032.75 1032.48 1032.70 1032.58 1032.49 1032.76 1032.84 1032.76 1032.40 1032.16 1031.92 1031.88 1031.63 1031.32 1030.93 1030.67 1030.71 1030.19 1029.77 1029.34 1028.76 1027.91 1027.38 1026.02 1024.44 1023.70 1022.76 1022.08 1020.45 1018.31 1018.42 1017.16 1016.64 1015.63 1014.76 1013.67 1012.70 1011.83 1010.72 1009.84 1008.98 1008.15
1032.98 1032.90 1032.98 1032.91 1033.03 1032.98 1032.86 1032.96 1033.10 1033.04 1032.62 1032.48 1032.14 1031.86 1031.61 1031.53 1030.71 1030.70 1029.91 1029.68 1029.06 1028.39 1027.87 1027.28 1025.96 1024.65 1023.52 1022.60 1022.04 1020.98 1019.49 1017.71 1016.28 1016.34 1014.71 1013.88 1012.97 1011.82 1010.86 1010.04 1009.17 1008.33 1007.14
1033.23 1033.24 1033.08 1033.14 1033.34 1033.10 1033.06 1033.36 1033.47 1033.25 1032.90 1032.51 1032.45 1032.31 1032.03 1031.15 1031.09 1030.57 1030.31 1029.62 1029.29 1028.72 1028.10 1027.34 1026.22 1025.05 1023.93 1023.34 1022.15 1021.22 1019.85 1018.17 1015.45 1015.21 1014.36 1012.59 1012.59 1010.79 1009.98 1008.94 1007.87 1007.00 1006.08
1033.32 1033.39 1033.49 1033.57 1033.51 1033.41 1033.18 1033.50 1033.51 1033.62 1033.00 1032.97 1032.67 1032.36 1031.78 1031.20 1030.91 1030.66 1030.01 1029.46 1029.38 1028.91 1028.15 1027.40 1026.33 1025.54 1024.07 1023.45 1022.34 1020.68 1019.69 1018.70 1016.78 1014.77 1014.41 1011.69 1011.09 1009.72 1008.54 1007.25 1006.32 1005.41 1004.56
1033.42 1033.94 1033.94 1033.97 1033.71 1033.24 1033.02 1033.61 1033.71 1033.82 1033.21 1032.84 1032.54 1032.15 1031.55 1031.08 1030.89 1030.16 1029.35 1029.03 1028.71 1028.35 1027.90 1027.16 1026.44 1025.28 1024.34 1023.12 1022.48 1021.17 1019.84 1018.33 1016.11 1014.29 1013.78 1011.83 1010.61 1008.95 1008.06 1006.91 1005.53 1004.31 1003.08
1033.77 1033.70 1033.77 1034.09 1033.86 1033.79 1033.31 1033.57 1033.74 1033.55 1032.98 1032.49 1031.97 1031.63 1031.26 1030.81 1030.45 1029.58 1028.76 1028.43 1028.22 1027.88 1027.23 1026.31 1025.74 1024.89 1023.91 1023.05 1022.24 1020.90 1019.55 1018.29 1015.99 1013.91 1013.20 1011.93 1010.15 1008.93 1007.50 1005.72 1004.26 1002.69 1001.49
1033.97 1033.74 1033.86 1033.98 1033.77 1033.60 1033.64 1033.66 1033.47 1033.19 1032.63 1032.02 1031.85 1031.47 1030.96 1030.54 1029.61 1029.03 1028.75 1028.41 1027.99 1027.12 1026.10 1025.33 1024.87 1023.96 1023.42 1022.59 1021.74 1021.24 1020.13 1018.62 1016.81 1014.02 1012.37 1011.94 1009.79 1009.11 1006.52 1004.85 1003.32 1001.98 1000.17
Wind_Speed
1 2 3 2 3 2 2 3 4 4 4 6 5 5 6 5 6 3 3 10 9 12 15 17 17 17 18 19 19 17 18 15 15 13 12 13 10 10 9 8 7 3 4
2 2 3 4 4 3 4 4 5 4 5 5 5 6 6 5 6 8 5 5 10 10 13 16 18 17 17 18 19 17 18 17 15 12 12 10 10 9 9 6 6 7 6
2 3 3 3 4 4 5 5 5 5 5 6 7 6 5 6 6 7 6 4 5 8 9 13 13 14 14 15 18 18 18 18 18 15 14 12 11 11 10 9 9 8 6
7 5 4 4 4 4 3 3 4 6 5 5 5 5 5 5 6 7 6 5 4 4 5 7 8 9 11 15 16 17 18 19 19 16 14 12 13 13 13 12 11 9 8
9 6 4 5 6 4 5 5 5 4 4 5 6 5 7 7 6 5 6 6 5 4 4 6 8 4 9 11 14 18 20 20 22 17 13 11 14 15 14 12 10 10 10
8 6 5 6 5 4 5 5 5 5 4 4 6 6 8 7 6 4 4 6 6 6 4 5 4 4 7 9 13 16 18 20 21 17 15 13 13 15 13 11 12 12 12
7 8 5 5 5 6 7 8 5 6 4 6 3 6 4 6 4 6 8 6 6 6 6 6 4 3 4 10 14 18 19 20 23 20 17 15 16 17 14 13 16 15 14
10 9 8 7 7 6 8 8 8 4 3 7 4 4 5 5 7 13 6 8 7 5 6 7 7 7 6 4 6 17 20 21 20 22 22 21 20 20 18 16 17 18 17
11 12 10 10 8 8 7 7 7 8 5 4 9 4 5 4 10 3 10 5 12 8 8 11 9 9 8 5 7 10 16 18 22 22 23 24 25 22 22 22 21 19 17
11 11 9 10 9 7 9 7 8 8 6 7 5 9 4 4 3 7 4 13 9 13 11 11 9 11 10 5 6 10 13 16 18 21 23 27 29 29 26 24 27 22 20
10 10 9 9 8 7 8 7 7 8 6 6 5 7 4 6 5 4 9 8 9 9 10 10 12 10 11 9 7 7 14 19 19 19 21 24 28 30 31 31 25 27 23
8 11 10 9 7 6 8 6 7 11 9 7 6 6 6 4 8 6 9 13 12 5 12 8 9 8 10 11 14 20 22 22 23 24 22 22 25 27 29 31 33 31 29
4 6 7 9 8 9 8 9 9 9 8 7 8 6 5 5 6 7 8 10 10 8 3 5 6 7 10 11 12 22 24 27 29 28 28 25 27 28 29 30 31 33 33
4 8 8 10 11 10 10 9 7 6 6 7 9 7 5 6 6 6 6 10 12 6 4 11 4 10 11 10 15 28 17 23 28 32 32 30 29 29 29 30 31 32 32
6 8 9 9 10 10 9 8 5 7 6 7 6 6 5 5 5 5 6 6 7 10 11 3 8 11 11 11 16 15 18 25 30 30 30 32 32 30 29 30 32 32 33
7 7 7 8 7 7 8 7 4 6 6 5 5 7 6 5 5 4 5 6 6 8 11 12 11 12 13 12 14 15 16 25 25 29 28 29 30 32 32 31 32 32 33
6 6 6 6 6 8 8 7 7 7 7 6 6 7 8 8 7 7 7 7 8 9 14 13 13 14 17 17 16 15 16 16 14 24 29 31 31 29 32 32 34 33 34
5 6 6 6 6 7 8 9 9 9 9 8 8 8 9 8 9 9 7 8 8 9 11 22 15 14 16 17 18 19 15 13 15 22 31 34 31 30 29 32 32 33 32
5 5 6 6 6 8 10 9 9 9 8 7 8 7 9 8 8 7 6 9 9 8 10 13 17 13 13 13 17 16 17 17 13 25 29 31 33 34 33 32 34 34 33
5 5 6 5 5 7 8 8 9 10 9 7 7 7 7 8 9 8 10 8 10 11 12 12 14 14 14 14 13 17 17 14 15 15 22 26 30 30 34 34 31 31 32
4 5 5 5 5 5 7 9 9 10 7 7 6 7 8 10 15 16 9 11 13 12 12 13 13 14 14 15 16 15 17 19 18 14 15 14 14 14 15 24 26 30 35
5 5 5 5 5 4 12 14 12 8 8 6 6 6 8 7 12 17 21 23 20 15 15 13 13 15 18 16 15 16 17 17 24 9 14 19 15 16 15 15 29 34 34
4 5 5 5 4 4 10 13 16 6 7 6 5 7 9 8 8 10 16 20 18 22 21 17 17 15 20 17 19 22 20 19 20 19 18 21 15 16 15 16 32 35 35
3 3 3 4 4 5 10 12 15 6 6 5 6 7 8 9 10 15 15 14 14 13 13 11 14 16 17 19 17 17 21 22 19 16 15 16 16 15 16 15 32 36 37
3 2 3 5 4 3 10 11 10 7 8 7 8 8 8 9 18 25 17 16 15 14 15 24 26 29 27 28 24 15 15 15 17 18 15 14 15 16 16 16 16 30 35
3 3 4 3 4 3 8 12 10 6 8 8 8 10 12 17 24 27 16 13 14 15 17 18 16 17 18 17 25 14 14 15 16 19 14 14 16 13 15 13 13 16 15
Wind_Direction
187 266 284 269 258 304 321 288 297 291 307 296 307 306 298 280 272 272 274 280 251 254 266 276 284 291 293 293 294 295 296 302 291 278 278 273 269 267 263 252 250 205 168
268 322 336 333 354 345 311 330 318 317 305 303 299 290 284 296 292 290 280 276 271 262 263 270 279 293 305 310 304 304 304 303 296 284 289 255 241 238 231 228 221 216 201
323 343 337 332 349 343 3 340 330 330 340 340 314 288 283 282 289 281 283 306 300 292 265 267 282 290 299 311 309 307 308 304 301 291 292 263 223 222 228 227 223 228 221
17 3 5 32 18 5 338 345 342 332 314 302 302 312 319 319 311 308 299 296 289 298 323 322 295 302 312 314 321 315 309 305 304 293 291 247 230 229 236 237 233 230 228
21 13 11 25 23 10 9 15 3 357 340 331 322 337 324 307 294 305 304 323 341 355 337 340 20 326 313 319 318 319 319 314 305 295 285 250 238 234 245 245 248 230 233
13 11 18 30 20 28 26 13 10 344 337 349 342 328 311 295 285 327 358 352 344 334 342 338 331 313 310 309 317 317 317 319 310 301 287 270 253 249 257 255 234 231 234
29 29 21 16 12 44 33 20 1 351 340 346 333 318 284 299 342 14 351 333 346 336 343 341 325 318 309 311 313 315 316 319 317 315 302 288 277 266 263 252 251 242 240
31 42 32 18 17 28 39 22 14 353 335 349 351 302 333 328 3 340 340 335 327 342 339 336 332 327 310 299 301 305 307 311 317 314 310 302 288 276 263 257 252 252 249
36 41 31 48 21 34 26 16 14 14 344 346 352 11 350 328 331 327 324 345 343 347 346 332 326 325 309 298 295 292 296 303 312 313 310 310 301 295 278 254 240 241 243
33 46 27 45 36 32 24 15 15 16 355 8 344 13 353 321 319 314 359 326 346 342 332 324 320 321 318 314 306 292 301 300 302 306 309 311 312 305 296 276 258 232 238
35 30 26 37 33 33 27 12 18 23 18 26 12 344 337 328 43 320 303 334 316 328 317 337 316 308 312 308 314 325 323 328 329 324 319 316 314 313 309 296 277 255 237
15 20 18 29 33 26 24 12 23 35 22 16 8 12 5 355 341 342 321 322 320 333 309 320 311 331 352 1 359 358 349 346 343 338 329 321 318 311 308 305 296 280 259
4 6 17 30 35 29 20 27 34 30 19 14 27 3 351 3 358 346 321 324 315 314 346 324 318 8 359 355 353 354 345 338 332 330 325 322 317 311 307 303 302 297 284
22 20 22 32 31 30 22 31 33 18 19 13 25 8 354 9 0 356 341 331 328 316 326 312 351 11 349 348 344 339 327 331 331 325 321 317 315 312 309 305 299 294 291
32 30 31 38 31 32 29 26 26 15 18 9 19 0 1 359 351 353 356 354 339 323 327 333 343 349 341 340 325 326 323 315 317 314 314 311 308 307 309 307 303 299 294
38 38 37 41 38 41 31 26 19 15 14 10 14 6 5 356 353 354 0 350 344 321 298 335 325 325 329 321 318 316 309 306 305 306 308 305 305 302 303 300 300 298 296
33 42 42 43 35 41 30 26 13 15 9 4 4 7 2 1 352 9 357 349 342 331 308 314 319 323 321 319 318 315 311 306 304 306 303 303 299 298 298 295 295 293 293
42 42 45 50 41 43 35 28 19 4 359 359 359 357 357 359 5 1 347 349 326 319 319 309 315 319 317 316 313 313 310 307 309 308 313 309 307 299 293 293 292 291 286
52 46 44 46 34 45 31 22 14 2 348 357 347 356 356 0 352 337 349 337 320 325 312 305 308 311 314 317 317 313 314 309 309 310 308 306 307 303 296 290 289 287 281
43 35 40 31 25 58 33 20 8 360 342 354 346 355 350 354 336 355 336 324 333 322 314 308 306 313 317 320 314 317 314 310 311 309 302 296 293 293 293 290 288 291 287
41 42 42 33 24 62 26 17 10 350 334 339 349 351 348 334 355 340 333 340 327 324 321 310 308 312 320 324 323 321 310 313 308 306 305 300 299 291 284 286 282 283 284
39 39 40 36 25 21 23 11 6 339 345 350 331 347 332 332 340 338 338 330 333 327 315 316 315 315 316 319 315 314 308 313 311 300 304 299 292 287 283 279 276 277 277
27 27 31 24 19 349 16 4 360 343 340 323 345 333 331 336 331 329 324 330 323 317 320 316 312 312 310 314 314 313 311 305 299 300 301 295 295 284 281 274 276 276 275
23 19 14 355 12 5 6 358 356 334 325 316 335 326 328 330 336 327 331 330 322 321 318 308 303 308 307 312 308 307 305 299 292 294 294 307 305 303 308 294 288 287 282
359 8 4 354 358 342 354 352 351 339 325 333 332 330 322 333 323 333 339 327 325 316 306 316 319 316 315 316 313 311 308 305 303 303 307 298 303 302 298 295 284 284 278
337 1 340 333 322 343 347 342 343 333 332 334 334 325 324 333 328 336 331 331 321 315 327 328 322 319 319 313 316 310 305 302 299 297 306 306 303 309 300 293 291 290 278